Theta_e
322 322 321 321 321 320 319 319 319 318 318 318 318 317 317 317 317 317 318 318 317 317 317 318 320 323 324 313 314 323 350 349 334 323 322 322 325 325 320 320 322 321 322 325 328 329 333
321 322 322 321 321 320 319 318 318 318 318 318 318 317 317 316 317 317 317 317 316 316 318 319 322 323 317 309 321 334 335 331 324 322 322 322 323 327 322 320 320 321 323 325 326 329 332
321 322 321 321 321 320 319 318 318 318 318 317 317 317 317 316 316 317 316 316 316 316 318 321 323 324 313 313 322 327 329 325 325 323 320 322 322 323 324 319 322 322 320 322 323 327 327
321 321 321 321 320 320 319 318 318 317 317 317 317 317 317 316 315 315 315 315 315 317 318 321 324 322 308 315 319 319 324 323 325 323 321 325 328 326 323 323 321 319 322 313 319 323 328
322 321 321 321 320 320 319 318 318 318 317 317 317 316 316 315 315 314 314 314 316 319 321 323 323 318 308 320 315 320 323 320 321 322 323 324 325 323 323 317 316 319 311 311 313 320 322
321 321 321 321 320 319 319 318 317 317 317 317 316 316 315 314 314 314 313 314 318 323 323 324 322 314 314 311 316 319 323 324 321 318 317 320 322 319 318 315 309 309 310 311 311 316 317
321 321 321 320 320 319 319 317 317 317 316 316 316 315 314 314 314 313 314 320 317 316 317 312 312 312 315 319 319 318 323 321 322 320 313 318 314 312 313 314 313 313 310 310 314 317 321
319 320 320 320 319 319 318 317 316 317 316 316 315 314 314 312 313 313 318 317 315 318 313 316 314 314 316 317 313 317 322 317 316 313 315 313 311 316 315 314 312 312 310 310 314 316 320
319 319 319 319 319 318 318 316 316 316 316 315 315 314 313 312 313 314 319 318 324 322 315 315 317 315 316 317 314 315 320 318 315 312 313 310 312 314 312 313 312 312 310 310 310 315 322
319 319 319 319 318 318 317 316 316 316 315 315 314 313 311 312 311 320 316 322 324 322 311 310 314 317 318 318 312 320 322 318 314 311 312 311 315 312 312 312 313 309 312 311 311 312 308
318 318 319 318 318 318 317 317 316 316 314 314 313 312 310 310 319 316 321 323 324 320 301 311 313 322 318 314 315 314 322 317 311 311 312 309 310 311 311 313 313 310 313 312 312 311 311
319 319 319 319 318 318 317 316 316 315 314 313 312 311 310 312 318 322 326 324 321 308 301 308 313 312 312 314 314 315 315 318 317 313 313 313 317 313 314 315 314 315 313 313 313 311 305
319 319 318 318 318 317 316 316 315 314 313 312 309 309 311 320 323 327 324 319 308 305 313 308 309 312 312 311 312 311 310 310 310 306 307 312 313 316 316 313 316 314 310 304 302 304 302
318 319 318 318 317 317 317 316 315 314 312 310 307 309 312 321 327 324 322 313 305 308 310 313 312 312 309 312 312 313 311 309 314 312 310 308 305 312 315 314 311 311 311 306 298 303 304
319 318 318 317 317 316 317 316 315 313 311 309 308 318 321 325 323 324 317 307 310 310 312 310 311 309 308 311 311 312 312 312 314 315 309 309 307 314 314 315 314 311 308 313 306 307 304
318 318 318 317 316 316 317 316 314 313 311 309 322 324 323 325 325 322 313 303 311 313 314 312 308 311 308 309 309 310 310 313 311 314 317 313 307 313 313 314 313 312 314 307 309 300 298
318 318 318 317 317 316 317 316 314 312 310 310 322 320 323 324 325 318 309 310 310 315 315 312 310 309 311 310 311 310 311 315 316 316 316 315 311 311 313 313 311 311 310 310 310 308 302
318 317 317 317 317 316 317 316 314 311 308 309 323 318 322 325 314 318 311 311 305 315 317 315 315 314 313 313 310 310 311 314 317 317 311 316 313 309 310 314 315 314 313 312 306 306 309
318 317 318 317 317 317 316 315 313 311 309 317 325 320 324 323 311 311 314 312 314 314 315 315 314 316 317 314 311 314 315 316 316 316 314 315 311 307 309 311 314 312 314 315 314 312 308
318 317 318 317 317 317 316 315 313 311 310 315 322 314 318 320 319 314 312 312 312 315 314 316 315 318 316 314 317 314 314 314 315 317 318 313 314 310 306 309 313 310 312 313 313 308 308
318 317 318 317 317 317 316 315 313 311 309 316 320 316 315 311 313 315 315 313 311 311 315 317 315 315 314 312 312 312 314 314 314 315 315 314 310 313 313 312 312 311 311 311 311 312 308
317 318 317 317 317 317 317 315 314 312 309 319 315 314 319 320 315 314 307 313 311 312 313 312 314 313 314 313 312 311 312 312 311 314 313 312 309 310 309 311 311 309 311 312 313 313 314
317 317 317 317 317 317 317 316 314 312 311 316 316 320 315 308 313 313 314 312 311 313 313 314 314 313 311 311 313 314 314 313 312 310 308 309 308 307 303 308 308 304 309 311 313 315 315
316 317 317 317 317 317 317 316 315 314 311 315 314 315 314 315 314 314 311 311 310 312 312 313 314 313 313 317 315 315 314 314 313 312 311 308 308 307 303 305 296 310 315 312 311 312 315
316 317 317 316 317 317 317 317 315 314 312 315 316 314 313 314 314 311 310 311 312 313 312 313 314 316 319 314 311 306 307 309 310 311 310 311 311 307 302 303 306 308 311 310 309 310 315
316 316 316 316 317 318 317 316 315 315 313 315 316 316 315 310 312 312 311 311 312 312 312 313 317 321 317 314 309 303 302 305 305 307 314 311 313 308 306 300 298 309 312 314 314 306 316
315 315 315 315 316 317 316 316 315 316 313 313 314 315 315 310 314 314 313 313 313 312 313 314 313 315 317 311 306 303 303 309 303 303 305 307 308 305 306 302 307 311 312 314 303 307 315
315 314 315 315 316 316 315 315 315 315 314 313 314 315 313 311 312 313 314 314 314 312 309 312 311 313 313 307 306 307 305 308 306 308 307 305 303 304 304 300 297 313 312 306 313 316 316
314 314 314 315 315 316 315 315 315 315 314 313 311 316 315 311 313 316 318 319 318 316 314 315 314 313 315 312 311 313 307 308 307 302 310 303 307 305 303 305 313 316 314 317 319 317 318
Wind_Speed
18 18 17 17 15 16 16 15 14 13 13 12 11 10 9 8 8 7 7 7 7 7 8 9 9 10 8 8 5 5 0 10 13 9 9 6 6 3 5 6 6 3 10 11 11 7 6
19 19 18 17 17 16 16 16 16 14 13 12 11 10 9 8 8 7 7 6 6 7 8 9 8 10 7 11 4 5 3 12 10 12 8 7 3 5 6 5 5 12 12 9 6 6 4
20 19 19 19 18 17 17 17 17 16 14 13 12 10 9 9 8 8 7 6 6 7 8 9 7 6 8 4 3 4 4 6 9 7 6 2 4 7 7 6 7 11 9 4 5 5 4
19 19 19 19 18 18 17 18 17 16 15 14 12 11 10 9 8 7 7 6 6 7 7 8 6 7 7 3 3 6 4 7 6 3 2 1 3 6 5 7 6 6 6 6 9 4 4
19 19 19 19 19 19 18 18 17 16 15 14 12 11 9 8 7 6 5 6 7 5 6 5 8 7 4 5 8 9 8 6 9 6 4 2 5 5 7 8 6 5 8 10 8 4 8
20 20 20 20 20 19 19 19 18 16 15 15 13 11 9 7 6 5 5 7 1 6 6 6 5 7 6 6 7 7 7 7 5 9 8 9 7 10 8 8 4 8 10 11 12 10 8
21 22 22 21 21 21 20 21 19 18 17 15 13 11 8 5 4 5 6 6 7 7 9 5 3 3 5 5 7 10 11 8 6 10 11 9 11 12 2 3 6 8 9 12 12 8 12
22 22 22 21 22 22 21 22 21 19 18 16 14 10 7 4 4 5 8 6 5 7 5 12 6 6 4 3 10 12 11 11 8 12 6 8 13 6 3 7 8 8 10 6 7 7 8
22 22 22 22 22 22 22 23 23 19 18 16 14 9 4 3 5 5 9 5 4 2 7 7 6 6 4 8 12 16 16 10 11 11 11 13 5 4 3 7 10 9 8 8 13 14 6
22 22 22 22 22 23 23 24 24 21 18 15 13 8 1 5 6 6 7 7 7 5 8 9 9 6 8 6 9 11 15 10 7 10 7 9 9 9 10 9 9 9 3 7 12 12 8
22 22 23 23 23 23 23 24 23 23 20 17 12 6 5 14 3 7 6 5 5 6 6 8 7 6 6 8 15 11 13 8 11 10 8 4 6 10 11 10 4 6 4 9 10 12 9
20 23 24 24 24 24 24 24 24 23 22 18 15 6 9 5 5 6 4 5 6 8 5 8 8 11 13 9 6 12 14 10 5 8 10 14 6 6 9 5 9 9 12 15 11 9 7
24 24 25 25 25 25 25 25 25 25 26 20 13 9 11 2 3 1 5 7 8 7 5 10 11 13 14 10 11 16 15 16 10 10 12 12 15 14 9 14 16 15 13 7 6 7 9
24 23 25 25 26 26 26 27 27 26 26 22 5 13 10 7 3 5 6 8 7 3 3 6 10 14 11 12 10 12 14 13 13 8 3 6 13 12 9 12 7 6 10 5 4 1 6
23 24 26 24 26 27 27 27 28 28 26 13 6 6 4 3 8 5 8 8 3 2 2 9 13 16 9 13 4 10 11 10 7 13 6 3 4 6 3 3 7 8 7 9 3 5 7
25 23 24 26 28 27 28 28 28 29 27 5 4 4 5 2 8 7 8 2 2 4 2 7 12 12 13 15 10 9 8 1 6 7 11 2 6 4 7 4 5 8 5 7 5 2 3
23 23 23 28 27 29 28 28 29 29 29 3 6 6 5 4 6 7 7 1 2 2 3 6 4 8 9 10 11 10 8 6 1 3 8 8 6 9 6 11 2 7 9 6 7 6 8
21 23 23 25 26 28 28 29 29 28 30 6 5 4 6 3 7 2 6 1 2 2 2 3 2 4 9 8 9 6 6 3 2 3 5 9 7 7 3 5 3 5 9 8 8 4 2
21 24 23 24 26 26 29 29 29 28 24 7 3 4 5 5 6 7 3 4 3 4 2 1 3 1 3 6 4 3 7 4 2 2 2 6 8 8 11 9 7 8 5 8 9 9 12
21 23 22 24 24 25 28 28 30 30 26 5 5 5 5 6 3 7 3 3 4 2 3 2 3 3 7 6 2 7 7 4 2 2 4 3 12 10 13 8 7 4 6 5 11 12 10
20 22 21 23 23 24 27 27 30 33 30 5 2 4 6 6 9 6 4 0 4 4 2 0 4 2 1 4 5 5 3 6 5 4 4 7 12 13 11 7 10 10 8 7 10 13 10
20 20 21 22 22 23 24 26 28 32 37 1 6 5 2 1 2 7 6 4 2 6 3 4 3 5 3 3 6 2 2 2 3 4 5 6 9 7 14 8 9 10 4 6 5 6 10
20 20 20 21 21 22 22 22 25 26 25 5 5 1 5 4 4 7 4 2 3 2 4 6 4 2 5 7 6 5 5 6 5 5 5 6 7 7 13 3 8 14 10 4 3 3 7
19 19 20 20 21 20 20 20 22 20 20 5 5 5 5 2 5 1 1 2 1 2 1 4 2 1 6 0 3 2 3 3 1 4 8 5 7 5 5 4 11 9 5 3 4 2 1
18 19 19 20 20 19 19 18 20 18 18 6 4 5 4 4 3 4 3 1 3 4 3 2 5 5 2 5 4 5 6 5 6 4 5 5 7 4 6 9 7 8 3 1 4 2 1
18 18 18 19 20 19 18 18 18 17 16 8 3 5 5 6 4 4 3 1 4 5 6 4 4 2 5 5 5 7 6 2 5 7 0 5 4 8 4 8 6 10 6 3 3 8 8
18 18 18 19 20 19 18 19 19 17 15 10 3 6 5 5 3 4 2 3 2 2 3 3 2 5 4 6 7 7 5 4 6 6 5 6 5 8 5 6 8 6 4 2 8 8 8
18 18 18 18 19 18 17 17 18 17 15 9 3 4 6 5 5 3 2 2 2 3 5 6 6 7 4 7 5 4 5 4 4 3 2 4 4 3 1 4 5 4 4 6 10 11 10
19 17 18 18 18 18 17 17 16 14 12 11 4 1 4 6 6 5 8 8 4 5 4 2 6 2 5 2 2 1 4 5 2 6 2 4 5 5 5 6 5 2 6 8 9 10 11
Wind_Direction
12 10 7 7 4 2 357 354 352 349 345 340 336 331 323 315 309 302 303 304 305 303 302 306 306 313 273 220 257 51 294 155 174 199 218 238 257 314 335 356 337 269 335 321 326 309 267
9 8 4 3 3 1 358 353 349 347 344 340 334 329 323 315 307 298 299 301 301 299 299 299 301 303 247 237 72 32 107 161 183 198 202 233 325 341 292 343 319 328 321 310 350 342 287
5 4 3 1 359 357 356 353 348 346 343 338 331 326 321 313 304 294 294 295 295 294 297 293 294 276 249 238 84 59 146 168 173 202 197 222 290 271 348 311 339 313 311 330 16 357 309
3 1 0 358 356 352 351 353 348 346 341 338 332 324 319 312 302 289 287 290 286 291 287 275 274 248 258 114 275 242 173 156 185 185 273 70 257 285 292 316 265 304 258 356 2 319 66
3 1 359 357 355 351 349 349 348 345 339 333 330 323 316 310 296 284 278 280 278 269 252 240 234 254 220 139 215 199 201 180 170 180 184 179 250 289 248 270 269 219 346 356 347 288 311
3 1 358 355 352 350 348 349 347 344 339 335 331 323 314 304 287 259 255 267 321 204 200 216 264 236 214 177 149 161 175 169 168 157 181 212 225 247 221 254 353 332 337 334 336 340 307
2 360 357 353 350 348 347 350 347 345 340 336 331 324 316 308 277 219 212 187 191 178 212 260 152 307 124 122 172 184 172 182 174 203 213 201 240 222 243 353 301 302 310 316 336 357 321
0 357 353 351 349 347 346 350 347 342 341 336 331 323 315 301 249 197 250 242 12 352 190 219 241 265 231 306 165 165 185 201 206 220 207 204 233 249 280 266 265 286 297 324 339 349 313
1 354 351 351 349 346 345 349 347 343 340 336 330 324 315 263 166 195 226 237 95 346 252 150 191 231 199 206 194 172 195 203 217 223 217 252 105 101 242 237 253 262 297 342 332 320 159
3 352 350 350 349 346 344 345 345 346 341 336 333 327 237 160 201 158 217 203 227 309 232 131 182 154 173 228 187 157 205 196 207 238 225 261 256 242 252 246 267 266 11 299 317 320 358
2 353 351 350 347 345 343 342 341 343 344 338 333 319 199 228 29 205 67 202 224 240 202 147 138 117 162 221 124 175 183 199 240 202 232 113 191 208 232 247 248 292 266 302 308 300 295
357 354 352 349 347 345 343 343 342 342 343 339 327 264 168 193 232 276 285 191 212 230 122 148 137 174 177 185 154 141 183 231 294 243 221 270 270 266 264 269 244 283 275 277 257 264 220
358 356 353 350 347 346 344 344 343 343 344 339 332 197 193 218 57 99 187 190 221 271 150 149 172 173 185 159 143 159 177 193 203 203 212 217 231 223 244 244 240 238 256 252 218 196 50
358 353 352 351 348 347 345 344 344 343 344 340 8 154 207 273 299 239 210 218 249 107 124 128 164 173 183 162 156 177 175 191 216 257 271 239 161 193 182 237 321 223 277 266 208 218 88
354 353 352 350 349 348 345 344 344 344 346 345 167 200 210 189 208 233 240 226 58 62 96 155 158 169 170 181 193 182 205 211 203 206 268 201 158 149 226 234 253 143 229 3 290 174 252
354 351 351 351 350 347 347 346 346 344 347 339 254 207 122 114 180 235 248 356 137 355 287 218 171 197 176 183 195 202 171 93 231 239 241 63 259 189 132 194 185 292 3 217 193 257 284
352 350 350 352 349 348 348 346 347 345 345 323 246 211 66 173 206 224 234 142 282 84 265 221 182 172 186 167 210 194 164 117 275 166 232 245 254 134 204 210 178 171 213 231 301 300 314
345 350 350 349 349 348 348 346 346 348 343 244 290 201 127 204 224 238 231 258 20 326 182 199 252 154 165 156 182 187 178 16 10 241 195 220 270 256 266 100 283 289 295 282 266 206 210
344 349 349 348 348 348 349 346 345 349 357 307 280 103 167 262 237 208 172 248 281 349 91 194 133 322 171 148 153 163 133 103 70 207 214 181 238 246 187 181 184 226 197 271 281 292 280
341 346 348 348 347 348 350 347 345 345 351 275 270 171 155 220 286 288 213 183 190 74 79 61 96 160 151 140 87 151 151 133 119 97 351 241 265 270 294 21 336 233 225 252 278 273 282
339 344 346 348 347 348 350 351 347 345 345 273 320 56 359 184 203 228 265 283 215 153 113 34 125 87 158 155 154 145 172 170 175 125 224 275 268 276 275 297 280 299 281 258 255 273 283
337 340 347 348 346 348 350 355 353 349 336 330 340 332 319 318 215 230 166 172 218 138 302 119 145 94 68 78 15 112 284 221 294 154 252 236 267 283 266 241 256 250 245 259 268 269 263
338 340 344 346 347 348 350 355 359 359 342 8 13 262 286 134 207 230 184 150 122 203 78 47 90 126 114 64 19 1 320 307 293 272 242 269 258 241 262 209 254 247 244 263 298 281 312
339 340 345 346 347 347 349 354 359 4 2 315 23 289 287 138 249 315 243 226 157 105 108 83 97 264 78 184 158 134 140 122 69 246 241 236 224 231 274 186 233 71 75 36 308 253 269
339 341 343 344 344 346 349 353 357 360 358 315 353 324 327 281 332 184 186 152 152 134 127 136 77 46 183 191 200 172 181 204 110 77 189 244 234 190 251 230 111 166 154 309 315 197 174
338 340 342 342 341 344 349 352 354 356 358 317 8 319 297 304 101 351 262 312 234 206 165 140 111 47 221 244 216 234 218 243 177 157 282 143 225 252 173 274 266 71 87 8 287 255 82
336 339 339 337 339 342 347 349 351 353 356 326 353 350 279 291 69 304 278 334 330 257 288 140 158 192 240 227 235 233 216 323 210 211 177 188 248 256 218 267 110 76 43 298 245 56 346
333 337 334 332 333 338 343 343 346 349 354 337 343 360 332 307 295 287 301 272 195 246 265 90 206 197 216 237 254 168 254 169 210 50 219 236 264 194 252 263 233 61 240 275 6 324 330
335 333 330 330 331 335 338 338 337 340 347 331 288 43 318 256 338 319 293 290 307 3 318 185 1 49 20 257 233 156 185 182 199 176 170 213 340 8 302 48 82 4 313 319 315 304 307